Flag for Brazil Weather past 2 weeks in Rio de Janeiro, Rio de Janeiro, Brazil

Now
79 °F

Sunny.


Feels Like: 81 °F
Forecast: 72 / 87 °F
Wind: 1 mph from East

Location: Rio De Janeiro Airport

Current Time: Mar 3, 2015 at 8:14:53 AM

Latest Report: Mar 3, 2015 at 7:00 AM


Visibility: 10 mi

Pressure: 30.01 "Hg

Humidity: 74%

Dew point: 70 °F

Location of Rio de JaneiroLocation

Historic Weather in Rio de Janeiro — Graph

°F

Rio de Janeiro temperature yesterday

Maximum temperature yesterday: 88 °F (at 11:00 AM)
Minimum temperature yesterday: 73 °F (at 6:00 AM)
Average temperature yesterday: 83 °F

Past Weeks' High & Low Weather Summary

 TemperatureHumidityPressure
High102 °F (Feb 20, 1:00 PM)89% (Feb 16, 8:00 AM)30.09 "Hg (Feb 16, 8:00 AM)
Low73 °F (Mar 1, 6:00 AM)35% (Feb 20, 1:00 PM)29.74 "Hg (Feb 19, 6:00 PM)
Average85 °F69%29.93 "Hg
* Reported Feb 16 8:00 AM — Mar 3 7:00 AM, Rio de Janeiro, Weather by CustomWeather, © 2015

Note: Actual official high and low records may vary slightly from our data, if they occured in-between our weather recording intervals... More about our weather records

Advertising

Rio de Janeiro weather history for previous 24 hours

 ConditionsComfort  
Time TempWeatherWind HumidityBarometerVisibility
7:00 AM
Tue, Mar 3
79 °FSunny.1 mph74%30.01 "Hg10 mi
6:00 AM75 °FScattered clouds.1 mph83%29.98 "HgN/A
10:00 PM
Mon, Mar 2
79 °FClear.6 mph74%30.01 "Hg10 mi
9:00 PM79 °FPassing clouds.9 mph74%30.01 "HgN/A
8:00 PM81 °FPassing clouds.6 mph66%29.98 "HgN/A
7:00 PM79 °FPassing clouds.7 mph74%29.98 "HgN/A
6:00 PM81 °FPassing clouds.13 mph70%29.98 "HgN/A
5:00 PM84 °FScattered clouds.15 mph62%29.98 "HgN/A
4:00 PM84 °FScattered clouds.13 mph62%29.98 "HgN/A
3:00 PM88 °FScattered clouds.13 mph59%30.01 "HgN/A
2:00 PM88 °FScattered clouds.15 mph62%30.04 "HgN/A
1:00 PM84 °FScattered clouds.12 mph66%30.04 "HgN/A
12:00 PM88 °FScattered clouds.12 mph59%30.07 "HgN/A
11:00 AM88 °FPassing clouds.9 mph59%30.09 "HgN/A
10:00 AM86 °FPassing clouds.6 mph59%30.09 "HgN/A
9:00 AM86 °FPassing clouds.2 mph59%30.09 "HgN/A
8:00 AM82 °FSunny.2 mph62%30.09 "Hg10 mi
Weather by CustomWeather, © 2015

See weather overviewHow to use our weather pages